Wind_Speed
90 91 93 96 99 100 99 100 98 100 100 105 104 102 104 104 105 104 104 106 104 103 102 103 105 105 106 108 111 114 116 117 117 122 118 113 113 115 111 109 105 100 98
87 89 92 93 98 102 103 103 102 102 103 104 105 107 107 109 109 109 110 110 110 109 110 109 111 111 113 114 113 118 119 120 121 113 115 116 114 109 107 104 100 97 89
87 88 90 92 96 100 102 104 106 103 103 107 105 106 107 107 110 113 114 113 113 113 114 114 115 115 117 119 121 120 115 112 112 114 113 113 113 106 105 98 95 86 78
86 89 91 93 96 97 97 100 103 103 105 102 102 105 106 107 107 108 112 115 117 118 118 119 121 119 117 113 110 109 111 111 112 112 110 110 107 104 96 90 82 76 72
88 89 90 92 94 96 97 97 98 101 102 102 102 103 103 105 106 107 107 108 110 110 111 111 110 108 109 110 110 108 109 108 109 108 108 107 99 91 85 77 74 71 69
84 90 93 93 94 95 96 96 96 96 98 100 101 101 101 103 104 105 107 107 108 106 109 110 109 109 108 109 106 106 106 106 104 101 95 90 84 79 71 69 67 65 65
75 77 81 85 90 95 97 98 98 98 99 100 100 99 100 101 103 104 105 106 107 107 108 108 108 107 107 105 105 103 97 94 92 90 85 79 73 69 66 65 64 65 67
72 72 73 75 78 81 85 90 95 97 99 101 102 102 102 103 103 103 104 103 104 106 106 107 107 106 104 104 102 97 93 88 86 82 73 68 65 65 62 61 63 62 68
71 72 71 71 72 73 76 78 80 83 86 90 92 94 96 98 100 100 101 101 101 102 102 102 99 99 97 96 91 89 85 84 75 71 66 64 61 59 61 63 61 65 69
69 69 69 68 69 69 71 72 74 77 78 80 82 83 84 85 86 86 87 87 88 90 91 89 88 86 86 84 82 78 77 71 70 66 64 62 59 60 62 59 63 67 67
68 69 68 68 68 68 68 68 69 71 73 75 76 77 78 77 78 78 79 80 80 80 80 80 76 74 72 71 69 68 65 64 64 62 61 59 60 62 57 62 65 64 64
63 65 66 68 69 69 67 67 66 66 66 67 70 72 73 72 72 73 73 72 72 72 70 69 68 67 65 62 60 59 59 60 59 58 59 61 62 57 59 64 64 64 59
58 60 61 63 64 64 63 63 63 62 62 63 65 65 66 67 67 66 65 64 63 63 62 62 60 59 58 57 56 55 57 57 56 59 60 56 55 58 61 62 62 59 59
55 55 54 54 57 57 55 55 56 55 54 53 54 57 58 58 59 57 56 57 58 56 55 56 55 53 55 56 53 53 55 56 58 58 54 54 57 58 60 59 58 57 50
51 51 50 51 51 49 49 48 47 47 47 47 47 49 49 48 50 50 49 49 50 50 50 51 52 53 54 55 54 56 57 58 54 51 53 54 56 58 56 56 52 49 49
50 50 50 48 48 47 46 45 44 43 43 43 44 45 44 44 45 45 44 45 47 48 49 50 51 52 54 54 54 52 51 50 50 51 51 54 55 53 53 50 47 48 48
46 46 46 46 47 46 46 45 45 43 43 43 42 42 42 43 44 45 43 43 44 45 47 48 47 47 48 48 48 50 49 51 49 49 53 52 51 52 49 47 47 48 49
47 48 48 48 47 47 46 46 45 45 45 44 43 41 41 41 41 43 44 46 46 45 45 45 45 45 45 46 48 51 48 47 49 49 50 48 49 48 47 46 47 48 49
47 47 47 47 48 49 49 48 48 47 47 47 45 43 43 42 41 40 41 42 43 46 47 48 49 49 49 48 46 46 47 49 47 47 46 46 46 44 44 45 46 48 51
45 45 46 46 46 47 49 51 54 54 53 51 50 47 47 47 46 45 44 44 43 43 43 44 44 45 46 47 48 49 49 48 48 48 47 48 47 46 48 49 50 51 53
45 45 45 45 46 46 47 48 50 51 52 55 55 53 53 53 52 53 52 51 51 52 51 50 50 51 52 53 53 50 49 50 50 50 50 50 50 51 51 52 53 54 56
42 44 45 47 47 46 47 47 46 47 48 51 52 54 55 57 56 57 57 56 55 54 55 54 53 52 51 50 51 52 53 55 53 52 53 54 54 54 54 56 56 57 59
44 43 42 43 45 46 48 49 48 47 47 48 50 51 52 53 54 55 56 56 55 54 53 52 52 51 51 52 53 54 58 60 58 56 56 56 57 57 57 58 58 59 61
48 48 48 47 46 46 44 44 45 46 48 49 49 50 51 52 54 56 56 56 55 55 54 55 55 56 57 59 60 61 62 63 61 60 57 59 60 58 59 61 62 63 63
53 52 51 50 50 50 50 49 48 47 46 46 46 48 50 51 53 53 55 57 57 56 56 57 59 61 62 62 62 62 61 59 58 57 57 58 60 61 62 64 65 66 67
54 53 53 53 53 52 51 52 53 53 53 52 51 50 49 48 49 50 53 55 57 57 57 57 58 59 60 60 59 58 56 54 54 55 57 59 61 62 64 65 67 69 69
Wind_Direction
244 244 244 244 245 247 249 250 249 249 251 251 251 251 254 256 259 260 261 263 265 267 270 272 274 277 279 281 282 285 288 291 292 294 296 296 297 300 304 306 309 309 310
244 245 244 244 245 246 247 250 249 248 249 251 251 253 254 255 257 260 262 265 267 268 271 273 274 277 280 281 284 285 288 289 290 292 294 297 298 302 304 305 306 307 307
245 245 246 246 246 247 248 250 252 253 253 252 253 254 255 257 257 259 262 263 265 267 270 273 274 276 279 281 283 285 288 288 290 292 294 296 299 303 303 304 304 304 305
247 247 247 247 249 251 251 252 253 255 257 258 257 257 257 258 259 260 261 263 264 266 268 271 273 276 278 280 282 284 286 288 290 291 294 296 299 301 301 301 303 302 304
248 249 249 250 251 252 254 255 255 255 257 258 258 259 260 260 261 261 262 263 265 267 269 270 272 276 278 279 281 284 286 287 289 291 291 295 298 298 299 300 299 301 301
249 249 250 251 251 253 254 255 256 257 257 259 259 260 261 262 263 264 265 267 268 269 270 272 274 276 278 280 281 281 284 285 286 289 292 294 296 297 296 296 299 300 302
254 252 252 252 253 254 255 256 257 257 258 260 261 262 263 263 264 265 266 267 268 270 272 273 274 275 277 279 279 281 281 283 284 288 293 295 295 294 294 297 297 300 299
256 256 256 255 254 255 256 257 258 259 260 260 261 262 262 263 264 265 266 267 268 268 270 271 272 274 274 275 277 279 280 283 287 289 291 292 291 293 294 296 298 298 298
260 259 258 258 258 257 257 258 258 258 259 260 260 261 261 262 263 264 265 266 268 267 268 269 270 272 274 276 278 279 279 282 286 287 287 289 290 292 294 295 295 295 301
264 264 264 264 262 261 260 260 259 259 259 260 260 261 262 262 263 264 265 266 265 265 267 269 271 271 273 275 276 277 280 281 282 284 285 287 290 291 293 293 294 299 301
264 265 266 266 266 264 263 263 262 261 261 260 261 261 262 262 263 264 264 264 265 266 267 268 269 272 273 274 275 277 278 279 280 281 284 285 287 289 289 291 296 299 302
263 262 262 263 264 265 264 264 263 262 262 261 260 260 261 262 263 264 265 266 267 267 269 270 271 272 273 275 275 275 275 276 278 280 280 284 286 286 289 294 296 300 301
260 260 261 262 263 264 265 264 264 264 263 262 260 260 261 262 263 264 266 267 268 269 269 270 271 272 272 272 273 271 272 275 275 278 282 283 284 289 291 294 298 299 301
258 259 260 260 262 264 264 265 265 265 265 264 263 263 263 264 265 265 266 265 266 266 266 267 267 265 266 267 267 269 270 271 275 278 280 284 288 289 293 297 298 299 297
258 259 259 260 261 262 264 265 263 262 263 262 263 263 263 263 262 262 262 261 260 261 261 261 263 263 264 267 266 268 270 273 274 279 282 285 289 291 296 298 296 295 297
259 260 260 261 261 260 263 264 265 264 262 263 262 260 259 259 258 258 258 258 257 257 259 259 259 260 262 264 266 267 268 271 276 280 282 287 290 293 296 296 294 295 299
258 260 262 263 261 261 261 261 262 265 264 264 264 263 261 260 260 260 260 258 257 258 258 259 260 259 260 260 262 266 268 274 277 278 285 287 290 294 296 293 292 296 298
258 259 259 259 260 260 260 262 262 262 263 263 266 264 262 262 262 260 260 260 260 260 259 258 258 259 262 264 265 270 271 272 279 280 283 286 290 294 294 293 295 297 298
258 258 259 259 258 260 261 262 261 261 260 260 262 262 263 264 261 259 259 259 259 259 260 260 262 264 266 266 266 267 272 277 275 279 279 284 289 293 295 297 299 299 298
262 261 260 260 260 260 259 260 260 261 262 261 261 261 261 263 263 264 263 263 262 260 260 261 261 261 262 264 266 271 274 272 277 277 275 281 286 291 292 296 296 297 299
263 263 263 264 263 262 263 263 261 262 261 260 261 260 260 260 261 265 265 265 265 265 265 264 264 264 265 269 271 270 271 274 277 272 273 278 284 288 292 295 296 299 302
266 266 265 266 265 265 265 266 265 264 262 261 261 260 259 260 261 262 263 264 265 264 265 265 263 263 264 266 268 267 271 275 278 275 272 277 282 286 290 294 297 299 301
266 266 267 268 268 268 267 268 267 265 264 264 263 263 262 261 262 262 262 263 263 263 263 261 260 262 263 265 267 269 271 276 277 277 272 274 280 285 289 292 297 300 301
265 266 267 267 268 269 270 269 270 270 269 267 266 265 264 263 263 262 264 263 263 263 262 261 260 261 264 267 269 272 274 276 277 276 274 274 279 285 290 294 296 299 300
266 268 270 270 269 268 269 269 269 268 268 269 269 268 266 265 264 263 264 264 265 264 263 263 264 265 268 270 272 273 275 276 275 274 274 277 280 286 290 293 295 297 299
267 268 269 269 269 269 269 268 268 268 268 267 266 267 267 268 266 265 264 263 264 265 266 266 267 267 269 270 272 272 273 272 272 273 275 278 282 285 289 292 294 296 299
Height
10611 10618 10625 10631 10634 10637 10642 10646 10652 10657 10661 10663 10666 10669 10671 10673 10673 10674 10677 10678 10678 10678 10676 10676 10672 10671 10668 10665 10660 10655 10652 10646 10640 10634 10626 10619 10613 10607 10601 10594 10586 10577 10570
10594 10599 10605 10610 10614 10617 10620 10623 10629 10632 10638 10641 10643 10648 10652 10654 10656 10656 10656 10658 10660 10661 10658 10659 10654 10652 10649 10645 10644 10636 10634 10629 10622 10615 10608 10600 10595 10590 10584 10577 10569 10561 10554
10577 10581 10585 10591 10593 10596 10601 10606 10607 10614 10618 10619 10627 10630 10631 10634 10636 10637 10639 10641 10640 10641 10639 10638 10635 10633 10630 10627 10626 10620 10614 10609 10603 10597 10589 10583 10578 10572 10565 10560 10553 10546 10538
10559 10563 10567 10571 10573 10576 10582 10587 10592 10597 10598 10603 10608 10610 10614 10616 10618 10620 10621 10620 10620 10619 10619 10618 10616 10615 10612 10609 10604 10601 10595 10589 10583 10577 10571 10566 10562 10556 10550 10543 10536 10529 10523
10540 10545 10549 10554 10557 10559 10563 10567 10571 10575 10578 10582 10585 10588 10591 10593 10595 10598 10600 10599 10599 10600 10600 10597 10596 10594 10592 10588 10583 10581 10574 10569 10564 10559 10553 10550 10546 10540 10534 10527 10521 10514 10509
10522 10526 10529 10533 10536 10538 10542 10546 10549 10554 10557 10559 10562 10565 10568 10570 10572 10575 10577 10578 10578 10579 10577 10576 10575 10572 10570 10566 10564 10558 10557 10550 10546 10542 10537 10534 10530 10525 10518 10512 10506 10499 10496
10503 10507 10511 10514 10517 10519 10522 10525 10528 10531 10534 10536 10540 10543 10546 10547 10549 10551 10552 10554 10554 10554 10553 10552 10551 10550 10548 10547 10542 10540 10537 10532 10528 10524 10522 10517 10513 10507 10503 10498 10492 10487 10480
10485 10488 10491 10493 10496 10499 10503 10504 10506 10509 10512 10514 10517 10519 10522 10523 10524 10525 10528 10531 10531 10529 10530 10529 10528 10528 10526 10524 10523 10521 10516 10514 10510 10509 10505 10500 10496 10492 10487 10483 10478 10473 10466
10465 10467 10471 10475 10477 10480 10481 10483 10485 10487 10488 10489 10491 10494 10495 10497 10499 10502 10503 10506 10508 10507 10506 10506 10506 10506 10504 10504 10503 10501 10498 10497 10495 10492 10488 10485 10481 10477 10473 10469 10464 10458 10452
10447 10448 10451 10454 10456 10458 10459 10462 10463 10465 10466 10467 10469 10471 10472 10475 10476 10478 10481 10483 10484 10482 10484 10486 10485 10484 10484 10484 10484 10483 10482 10481 10478 10475 10472 10469 10466 10463 10459 10455 10449 10443 10436
10430 10431 10433 10434 10434 10436 10439 10441 10442 10443 10444 10446 10448 10449 10451 10453 10455 10457 10458 10460 10461 10463 10464 10465 10466 10466 10467 10465 10465 10465 10465 10463 10461 10458 10456 10455 10452 10449 10444 10440 10434 10428 10422
10414 10415 10415 10416 10417 10418 10419 10420 10422 10423 10424 10426 10427 10428 10430 10432 10435 10437 10438 10440 10442 10443 10445 10447 10447 10448 10448 10448 10448 10447 10447 10447 10445 10443 10441 10440 10437 10433 10429 10424 10418 10413 10408
10397 10397 10398 10400 10400 10401 10402 10403 10404 10406 10407 10408 10409 10411 10413 10414 10417 10419 10421 10423 10424 10425 10427 10428 10429 10430 10430 10431 10431 10431 10431 10432 10429 10428 10427 10424 10421 10418 10414 10409 10404 10398 10393
10382 10382 10383 10384 10385 10386 10387 10388 10389 10390 10390 10391 10393 10394 10396 10399 10401 10403 10404 10405 10407 10410 10411 10411 10413 10414 10414 10415 10416 10417 10417 10416 10415 10414 10412 10410 10407 10403 10399 10394 10389 10384 10378
10368 10369 10370 10371 10372 10373 10374 10374 10375 10375 10375 10376 10378 10380 10382 10384 10384 10386 10389 10390 10392 10394 10395 10396 10397 10399 10400 10401 10402 10403 10403 10403 10401 10399 10397 10395 10392 10389 10385 10380 10374 10369 10365
10355 10356 10357 10359 10359 10361 10360 10361 10362 10362 10363 10364 10365 10366 10367 10369 10371 10372 10374 10376 10377 10379 10380 10382 10384 10385 10386 10387 10388 10388 10388 10388 10387 10385 10383 10381 10378 10375 10371 10366 10360 10356 10352
10344 10344 10345 10346 10347 10347 10348 10349 10350 10350 10351 10351 10353 10353 10354 10356 10357 10359 10361 10362 10364 10365 10367 10368 10370 10371 10372 10373 10374 10375 10375 10375 10373 10372 10370 10367 10364 10361 10356 10352 10348 10344 10339
10331 10332 10332 10333 10334 10335 10336 10337 10338 10339 10339 10340 10340 10341 10343 10344 10345 10346 10348 10349 10350 10352 10354 10355 10357 10358 10359 10360 10361 10361 10360 10360 10360 10358 10356 10354 10351 10346 10342 10339 10335 10330 10326
10318 10318 10319 10320 10321 10322 10324 10325 10325 10326 10327 10328 10329 10330 10331 10332 10334 10335 10336 10337 10339 10340 10341 10342 10344 10345 10346 10346 10346 10346 10347 10347 10346 10345 10342 10340 10337 10333 10330 10325 10322 10318 10313
10305 10306 10306 10307 10308 10309 10310 10311 10312 10313 10314 10316 10317 10318 10319 10320 10321 10323 10324 10325 10327 10328 10329 10330 10331 10332 10332 10332 10333 10333 10332 10332 10332 10330 10328 10326 10324 10320 10316 10313 10309 10305 10300
10291 10292 10293 10294 10295 10295 10296 10297 10298 10298 10299 10300 10302 10304 10307 10307 10308 10309 10311 10311 10312 10313 10315 10316 10317 10317 10317 10318 10319 10318 10318 10317 10316 10315 10313 10311 10309 10306 10303 10299 10296 10291 10285
10277 10278 10279 10279 10280 10281 10282 10283 10283 10284 10284 10284 10286 10288 10291 10292 10293 10294 10295 10295 10296 10298 10299 10299 10300 10300 10300 10302 10303 10303 10302 10300 10300 10300 10298 10296 10294 10291 10289 10285 10281 10276 10270
10264 10264 10265 10265 10265 10266 10267 10267 10268 10269 10269 10270 10270 10271 10273 10275 10275 10277 10278 10278 10280 10281 10282 10283 10283 10284 10285 10286 10287 10286 10285 10283 10283 10283 10282 10280 10278 10276 10274 10270 10266 10261 10255
10249 10250 10250 10251 10252 10252 10253 10253 10253 10254 10254 10255 10256 10256 10257 10258 10259 10260 10260 10261 10263 10264 10265 10266 10267 10268 10268 10269 10269 10269 10268 10266 10266 10265 10265 10264 10262 10261 10257 10253 10249 10244 10239
10232 10233 10234 10235 10236 10237 10237 10238 10238 10239 10240 10240 10240 10240 10241 10242 10242 10243 10243 10243 10244 10246 10247 10248 10250 10250 10250 10250 10251 10250 10249 10249 10249 10248 10249 10248 10246 10244 10241 10237 10232 10226 10222
10217 10217 10217 10218 10218 10219 10220 10220 10221 10222 10222 10223 10224 10224 10224 10225 10225 10225 10226 10227 10227 10227 10229 10230 10231 10232 10232 10232 10232 10231 10231 10232 10232 10232 10232 10231 10229 10226 10224 10219 10214 10209 10205